Location: Aranbee
(34.0885°N, 118.2342°W)
Time: 22:11:18
(UTC+00:00)

Explorer 11/Cluster Stage 4 - All Passes

Search period start: 05 December 2020 00:00
Search period end: 15 December 2020 00:00
Orbit: 467 x 1258 km, 28.8° (Epoch: 04 December)

Date Brightness Start Highest point End Pass type
(mag) Time Alt. Az. Time Alt. Az. Time Alt. Az.
05 Dec - 01:10:42 10° SSW 01:17:27 28° SSE 01:24:02 10° E visible
05 Dec - 02:58:26 10° WSW 03:06:19 50° SSE 03:13:26 10° E visible
05 Dec - 04:47:36 10° W 04:55:20 58° S 05:01:51 10° ESE visible
05 Dec - 06:37:22 10° W 06:43:58 39° SSW 06:49:25 10° SE night (unlit)
05 Dec - 08:28:33 10° WSW 08:31:48 15° SSW 08:34:44 10° S night (unlit)
05 Dec - 23:15:27 10° SSE 23:17:54 12° SE 23:20:23 10° SE daylight
06 Dec - 00:59:19 10° SW 01:06:17 32° SSE 01:13:12 10° E visible
06 Dec - 02:47:13 10° WSW 02:55:12 53° S 03:02:32 10° E visible
06 Dec - 04:36:26 10° W 04:44:16 58° S 04:51:00 10° ESE visible
06 Dec - 06:26:15 10° W 06:32:56 37° SSW 06:38:31 10° SE night (unlit)
06 Dec - 08:17:53 10° WSW 08:20:45 13° SW 08:23:23 10° S night (unlit)
06 Dec - 23:03:12 10° S 23:06:43 14° SE 23:10:22 10° ESE daylight
07 Dec - 00:48:00 10° SW 00:55:07 35° SSE 01:02:18 10° E daylight
07 Dec - 02:36:03 10° WSW 02:44:05 56° S 02:51:37 10° E visible
07 Dec - 04:25:16 10° W 04:33:12 57° S 04:40:07 10° ESE visible
07 Dec - 06:15:08 10° W 06:21:52 35° SSW 06:27:35 10° SE night (unlit)
07 Dec - 08:07:24 10° SW 08:09:41 12° SW 08:11:50 10° SSW night (unlit)
07 Dec - 22:51:21 10° S 22:55:33 16° SSE 22:59:57 10° ESE daylight
08 Dec - 00:36:46 10° SW 00:43:56 38° SSE 00:51:21 10° E daylight
08 Dec - 02:24:55 10° WSW 02:32:57 58° S 02:40:40 10° E visible
08 Dec - 04:14:07 10° W 04:22:07 56° S 04:29:12 10° ESE visible
08 Dec - 06:04:03 10° W 06:10:47 33° SSW 06:16:35 10° SE visible
08 Dec - 07:57:22 10° SW 07:58:36 11° SW 07:59:47 10° SSW night (unlit)
08 Dec - 22:39:44 10° S 22:44:22 18° SSE 22:49:20 10° ESE daylight
09 Dec - 00:25:35 10° SW 00:32:47 41° SSE 00:40:21 10° E daylight
09 Dec - 02:13:49 10° WSW 02:21:49 59° S 02:29:41 10° E visible
09 Dec - 04:03:00 10° W 04:11:00 54° S 04:18:15 10° ESE visible
09 Dec - 05:52:59 10° W 05:59:40 31° SSW 06:05:31 10° SE visible
09 Dec - 22:28:18 10° SSW 22:33:13 20° SSE 22:38:34 10° ESE daylight
10 Dec - 00:14:28 10° SW 00:21:37 44° SSE 00:29:19 10° E daylight
10 Dec - 02:02:44 10° WSW 02:10:42 60° S 02:18:39 10° E visible
10 Dec - 03:51:55 10° W 03:59:52 52° SSW 04:07:15 10° ESE visible
10 Dec - 05:41:58 10° W 05:48:31 28° SSW 05:54:23 10° SSE visible
10 Dec - 22:16:58 10° SSW 22:22:03 22° SSE 22:27:42 10° ESE daylight
11 Dec - 00:03:25 10° SW 00:10:28 46° SSE 00:18:14 10° E daylight
11 Dec - 01:51:42 10° WSW 01:59:33 61° S 02:07:37 10° ESE visible
11 Dec - 03:40:50 10° W 03:48:44 50° SSW 03:56:12 10° ESE visible
11 Dec - 05:31:00 10° W 05:37:22 26° SSW 05:43:11 10° SSE visible
11 Dec - 22:05:45 10° SSW 22:10:55 24° SSE 22:16:45 10° ESE daylight
11 Dec - 23:52:24 10° WSW 23:59:20 49° SSE 00:07:08 10° E daylight
12 Dec - 01:40:42 10° WSW 01:48:26 61° S 01:56:32 10° ESE visible
12 Dec - 03:29:48 10° W 03:37:35 47° SSW 03:45:07 10° SE visible
12 Dec - 05:20:04 10° WSW 05:26:12 24° SSW 05:31:53 10° SSE visible
12 Dec - 21:54:36 10° SSW 21:59:48 26° SSE 22:05:46 10° E daylight
12 Dec - 23:41:26 10° WSW 23:48:14 51° SSE 23:56:01 10° E daylight
13 Dec - 01:29:43 10° W 01:37:19 60° S 01:45:25 10° ESE visible
13 Dec - 03:18:47 10° W 03:26:25 44° SSW 03:33:57 10° SE visible
13 Dec - 05:09:14 10° WSW 05:15:01 21° SSW 05:20:29 10° SSE visible
13 Dec - 21:43:32 10° SSW 21:48:42 28° SSE 21:54:44 10° E daylight
13 Dec - 23:30:31 10° WSW 23:37:08 53° S 23:44:52 10° E daylight
14 Dec - 01:18:47 10° W 01:26:12 59° S 01:34:17 10° ESE visible
14 Dec - 03:07:49 10° W 03:15:16 41° SSW 03:22:45 10° SE visible
14 Dec - 04:58:30 10° WSW 05:03:50 19° SSW 05:08:58 10° S visible
14 Dec - 21:32:32 10° SW 21:37:37 30° SSE 21:43:40 10° E daylight
14 Dec - 23:19:37 10° WSW 23:26:04 54° S 23:33:42 10° E daylight
